Time,TemperatureF,DewpointF,PressureIn,WindDirection,WindDirectionDegrees,WindSpeedMPH,WindSpeedGustMPH,Humidity,HourlyPrecipIn,Conditions,Clouds,dailyrainin,SoftwareType,DateUTC
2013-08-28 00:01:00,73.4,71.3,29.87,SE,129,0.0,0.0,93,0.08,,---,0.00,VWS V14.01,2013-08-28 04:01:00,
2013-08-28 00:02:00,73.4,71.3,29.87,SE,129,0.0,0.0,93,0.08,,---,0.00,VWS V14.01,2013-08-28 04:02:00,
2013-08-28 00:03:00,73.4,71.3,29.87,SE,129,0.0,0.0,93,0.08,,---,0.00,VWS V14.01,2013-08-28 04:03:00,
2013-08-28 00:08:00,73.6,71.8,29.87,SE,129,0.0,0.0,94,0.08,,---,0.00,VWS V14.01,2013-08-28 04:08:00,
2013-08-28 00:13:00,73.6,71.8,29.87,SE,129,0.0,0.0,94,0.04,,---,0.00,VWS V14.01,2013-08-28 04:13:00,
2013-08-28 00:15:00,73.6,71.8,29.87,SE,129,0.0,0.0,94,0.04,,---,0.00,VWS V14.01,2013-08-28 04:15:00,
2013-08-28 00:20:00,73.4,71.6,29.87,SE,129,0.0,0.0,94,0.04,,---,0.00,VWS V14.01,2013-08-28 04:20:00,
2013-08-28 00:25:00,73.6,71.8,29.87,SE,129,0.0,0.0,94,0.04,,---,0.00,VWS V14.01,2013-08-28 04:25:00,
2013-08-28 00:30:00,73.6,71.8,29.87,SE,129,0.0,0.0,94,0.04,,---,0.00,VWS V14.01,2013-08-28 04:30:00,
2013-08-28 00:35:00,73.6,71.8,29.87,SE,129,0.0,0.0,94,0.04,,---,0.00,VWS V14.01,2013-08-28 04:35:00,
2013-08-28 00:40:00,73.6,71.8,29.87,South,172,0.0,0.0,94,0.00,,---,0.00,VWS V14.01,2013-08-28 04:40:00,
2013-08-28 00:45:00,73.6,71.8,29.87,SSE,157,7.2,7.2,94,0.00,,---,0.00,VWS V14.01,2013-08-28 04:45:00,
2013-08-28 00:50:00,74.1,72.6,29.87,South,174,0.0,0.0,95,0.04,,---,0.04,VWS V14.01,2013-08-28 04:50:00,
2013-08-28 00:55:00,74.3,72.8,29.87,South,183,0.0,0.0,95,0.04,,---,0.04,VWS V14.01,2013-08-28 04:55:00,
2013-08-28 01:00:00,74.3,72.8,29.87,SSE,164,6.3,6.3,95,0.04,,---,0.04,VWS V14.01,2013-08-28 05:00:00,
2013-08-28 01:05:00,74.5,73.0,29.87,SSE,160,6.3,10.7,95,0.08,,---,0.08,VWS V14.01,2013-08-28 05:05:00,
2013-08-28 01:10:00,74.7,73.1,29.87,South,172,10.7,10.7,95,0.12,,---,0.12,VWS V14.01,2013-08-28 05:10:00,
2013-08-28 01:15:00,74.5,73.0,29.84,SE,126,6.3,15.2,95,0.16,,---,0.16,VWS V14.01,2013-08-28 05:15:00,
2013-08-28 01:20:00,73.9,72.4,29.84,WSW,239,12.5,12.5,95,0.31,,---,0.31,VWS V14.01,2013-08-28 05:20:00,
2013-08-28 01:25:00,73.6,72.1,29.84,South,170,5.4,17.4,95,0.35,,---,0.35,VWS V14.01,2013-08-28 05:25:00,
2013-08-28 01:30:00,73.8,72.2,29.84,SE,140,11.6,12.5,95,0.35,,---,0.35,VWS V14.01,2013-08-28 05:30:00,
2013-08-28 01:36:00,73.8,72.2,29.84,SSE,153,7.2,10.7,95,0.35,,---,0.35,VWS V14.01,2013-08-28 05:36:00,
2013-08-28 01:40:00,73.9,72.7,29.84,SW,225,9.8,10.7,96,0.51,,---,0.51,VWS V14.01,2013-08-28 05:40:00,
2013-08-28 01:45:00,73.9,72.7,29.84,SW,229,6.3,11.6,96,0.55,,---,0.55,VWS V14.01,2013-08-28 05:45:00,
2013-08-28 01:50:00,73.9,72.7,29.84,South,181,0.0,9.8,96,0.51,,---,0.55,VWS V14.01,2013-08-28 05:50:00,
2013-08-28 01:56:00,74.1,72.9,29.84,South,191,0.0,4.5,96,0.51,,---,0.55,VWS V14.01,2013-08-28 05:56:00,
2013-08-28 02:01:00,74.1,72.9,29.84,SSE,155,4.5,9.8,96,0.51,,---,0.55,VWS V14.01,2013-08-28 06:01:00,
2013-08-28 02:06:00,74.1,72.9,29.84,SSW,212,0.0,0.0,96,0.47,,---,0.55,VWS V14.01,2013-08-28 06:06:00,
2013-08-28 02:11:00,74.1,72.9,29.84,WSW,253,0.0,11.6,96,0.43,,---,0.55,VWS V14.01,2013-08-28 06:11:00,
2013-08-28 02:16:00,73.9,72.7,29.84,SW,233,6.3,6.3,96,0.39,,---,0.55,VWS V14.01,2013-08-28 06:16:00,
2013-08-28 02:21:00,73.9,72.7,29.84,SW,235,0.0,0.0,96,0.24,,---,0.55,VWS V14.01,2013-08-28 06:21:00,
2013-08-28 02:26:00,73.9,72.7,29.84,WSW,254,0.0,0.0,96,0.20,,---,0.55,VWS V14.01,2013-08-28 06:26:00,
2013-08-28 02:31:00,74.1,72.9,29.84,SSE,167,5.4,5.4,96,0.20,,---,0.55,VWS V14.01,2013-08-28 06:31:00,
2013-08-28 02:36:00,74.1,72.9,29.84,SSE,151,0.0,0.0,96,0.20,,---,0.55,VWS V14.01,2013-08-28 06:36:00,
2013-08-28 02:41:00,73.9,72.7,29.84,SSE,151,0.0,0.0,96,0.04,,---,0.55,VWS V14.01,2013-08-28 06:41:00,
2013-08-28 02:46:00,73.9,72.7,29.81,South,178,0.0,0.0,96,0.00,,---,0.55,VWS V14.01,2013-08-28 06:46:00,
2013-08-28 02:51:00,73.9,72.7,29.81,SSE,167,0.0,0.0,96,0.00,,---,0.55,VWS V14.01,2013-08-28 06:51:00,
2013-08-28 02:56:00,73.9,72.7,29.81,SW,216,0.0,0.0,96,0.00,,---,0.55,VWS V14.01,2013-08-28 06:56:00,
2013-08-28 03:01:00,74.1,72.9,29.84,SW,231,0.0,0.0,96,0.00,,---,0.55,VWS V14.01,2013-08-28 07:01:00,
2013-08-28 03:06:00,74.1,72.9,29.84,West,274,0.0,0.0,96,0.00,,---,0.55,VWS V14.01,2013-08-28 07:06:00,
2013-08-28 03:11:00,74.1,72.9,29.84,SW,233,0.0,0.0,96,0.00,,---,0.55,VWS V14.01,2013-08-28 07:11:00,
2013-08-28 03:16:00,74.1,72.9,29.84,WNW,297,0.0,0.0,96,0.00,,---,0.55,VWS V14.01,2013-08-28 07:16:00,
2013-08-28 03:21:00,73.9,72.7,29.84,WNW,291,0.0,4.5,96,0.00,,---,0.55,VWS V14.01,2013-08-28 07:21:00,
2013-08-28 03:27:00,73.9,72.7,29.84,WNW,293,0.0,0.0,96,0.00,,---,0.55,VWS V14.01,2013-08-28 07:27:00,
2013-08-28 03:32:00,73.9,72.7,29.84,West,261,0.0,4.5,96,0.00,,---,0.55,VWS V14.01,2013-08-28 07:32:00,
2013-08-28 03:37:00,73.8,72.6,29.84,NW,309,0.0,8.1,96,0.00,,---,0.55,VWS V14.01,2013-08-28 07:37:00,
2013-08-28 03:42:00,73.8,72.6,29.84,SSW,211,0.0,0.0,96,0.00,,---,0.55,VWS V14.01,2013-08-28 07:42:00,
2013-08-28 03:47:00,73.6,72.4,29.84,NW,323,0.0,0.0,96,0.00,,---,0.55,VWS V14.01,2013-08-28 07:47:00,
2013-08-28 03:52:00,73.6,72.4,29.84,WSW,238,0.0,0.0,96,0.00,,---,0.55,VWS V14.01,2013-08-28 07:52:00,
2013-08-28 03:57:00,73.6,72.4,29.84,SW,216,0.0,0.0,96,0.00,,---,0.55,VWS V14.01,2013-08-28 07:57:00,
2013-08-28 04:02:00,73.4,72.2,29.84,West,274,4.5,6.3,96,0.00,,---,0.55,VWS V14.01,2013-08-28 08:02:00,
2013-08-28 04:07:00,73.4,72.2,29.84,West,259,0.0,0.0,96,0.00,,---,0.55,VWS V14.01,2013-08-28 08:07:00,
2013-08-28 04:12:00,73.4,72.2,29.84,NW,325,5.4,5.4,96,0.00,,---,0.55,VWS V14.01,2013-08-28 08:12:00,
2013-08-28 04:17:00,73.2,72.3,29.84,NNE,21,0.0,0.0,97,0.00,,---,0.55,VWS V14.01,2013-08-28 08:17:00,
2013-08-28 04:22:00,73.2,72.3,29.84,NW,308,0.0,4.5,97,0.00,,---,0.55,VWS V14.01,2013-08-28 08:22:00,
2013-08-28 04:27:00,73.2,72.3,29.84,NNW,334,0.0,0.0,97,0.00,,---,0.55,VWS V14.01,2013-08-28 08:27:00,
2013-08-28 04:32:00,73.2,72.3,29.84,NNW,334,0.0,0.0,97,0.00,,---,0.55,VWS V14.01,2013-08-28 08:32:00,
2013-08-28 04:37:00,73.2,72.3,29.84,NNW,334,0.0,0.0,97,0.00,,---,0.55,VWS V14.01,2013-08-28 08:37:00,
2013-08-28 04:42:00,73.2,72.3,29.84,NNW,334,0.0,0.0,97,0.00,,---,0.55,VWS V14.01,2013-08-28 08:42:00,
2013-08-28 04:47:00,73.0,72.1,29.84,NNW,334,0.0,0.0,97,0.00,,---,0.55,VWS V14.01,2013-08-28 08:47:00,
2013-08-28 04:52:00,73.0,72.1,29.84,NW,308,0.0,0.0,97,0.00,,---,0.55,VWS V14.01,2013-08-28 08:52:00,
2013-08-28 04:57:00,73.0,72.1,29.84,NW,308,0.0,0.0,97,0.00,,---,0.55,VWS V14.01,2013-08-28 08:57:00,
2013-08-28 05:02:00,73.0,72.1,29.84,NNW,335,0.0,0.0,97,0.00,,---,0.55,VWS V14.01,2013-08-28 09:02:00,
2013-08-28 05:07:00,73.0,72.1,29.84,NNW,334,0.0,0.0,97,0.00,,---,0.55,VWS V14.01,2013-08-28 09:07:00,
2013-08-28 05:13:00,73.0,72.1,29.84,NNW,336,0.0,0.0,97,0.00,,---,0.55,VWS V14.01,2013-08-28 09:13:00,
2013-08-28 05:18:00,73.0,72.1,29.84,NW,313,0.0,0.0,97,0.00,,---,0.55,VWS V14.01,2013-08-28 09:18:00,
2013-08-28 05:23:00,73.0,72.1,29.84,NW,312,0.0,0.0,97,0.00,,---,0.55,VWS V14.01,2013-08-28 09:23:00,
2013-08-28 05:28:00,73.0,72.1,29.84,NNE,18,6.3,6.3,97,0.00,,---,0.55,VWS V14.01,2013-08-28 09:28:00,
2013-08-28 05:33:00,73.0,72.1,29.84,NNW,332,0.0,0.0,97,0.00,,---,0.55,VWS V14.01,2013-08-28 09:33:00,
2013-08-28 05:34:00,73.0,72.1,29.84,NNW,332,5.4,5.4,97,0.00,,---,0.55,VWS V14.01,2013-08-28 09:34:00,
2013-08-28 05:39:00,73.0,72.1,29.84,NNW,328,0.0,0.0,97,0.00,,---,0.55,VWS V14.01,2013-08-28 09:39:00,
2013-08-28 05:45:00,73.0,72.1,29.84,NNW,328,5.4,5.4,97,0.00,,---,0.55,VWS V14.01,2013-08-28 09:45:00,
2013-08-28 05:50:00,73.0,72.1,29.84,NW,321,0.0,0.0,97,0.00,,---,0.55,VWS V14.01,2013-08-28 09:50:00,
2013-08-28 05:55:00,73.0,72.1,29.84,NW,305,0.0,7.2,97,0.00,,---,0.55,VWS V14.01,2013-08-28 09:55:00,
2013-08-28 06:00:00,73.2,72.3,29.84,NNW,344,6.3,8.1,97,0.00,,---,0.55,VWS V14.01,2013-08-28 10:00:00,
2013-08-28 06:05:00,73.2,72.3,29.84,NNW,331,0.0,0.0,97,0.00,,---,0.55,VWS V14.01,2013-08-28 10:05:00,
2013-08-28 06:10:00,73.2,72.3,29.84,NW,322,0.0,0.0,97,0.00,,---,0.55,VWS V14.01,2013-08-28 10:10:00,
2013-08-28 06:15:00,73.2,72.3,29.84,NW,323,0.0,0.0,97,0.00,,---,0.55,VWS V14.01,2013-08-28 10:15:00,
2013-08-28 06:20:00,73.2,72.3,29.84,NW,309,0.0,0.0,97,0.00,,---,0.55,VWS V14.01,2013-08-28 10:20:00,
2013-08-28 06:25:00,73.2,72.3,29.84,NW,309,0.0,0.0,97,0.00,,---,0.55,VWS V14.01,2013-08-28 10:25:00,
2013-08-28 06:30:00,73.2,72.3,29.84,NW,316,0.0,0.0,97,0.00,,---,0.55,VWS V14.01,2013-08-28 10:30:00,
2013-08-28 06:35:00,73.2,72.3,29.84,NNW,327,0.0,0.0,97,0.00,,---,0.55,VWS V14.01,2013-08-28 10:35:00,
2013-08-28 06:40:00,73.0,72.1,29.84,NW,322,0.0,0.0,97,0.00,,---,0.55,VWS V14.01,2013-08-28 10:40:00,
2013-08-28 06:45:00,73.2,72.3,29.87,NNW,327,0.0,0.0,97,0.00,,---,0.55,VWS V14.01,2013-08-28 10:45:00,
2013-08-28 06:50:00,73.0,72.1,29.87,North,355,0.0,0.0,97,0.00,,---,0.55,VWS V14.01,2013-08-28 10:50:00,
2013-08-28 06:55:00,73.0,72.1,29.87,North,354,0.0,0.0,97,0.00,,---,0.55,VWS V14.01,2013-08-28 10:55:00,
2013-08-28 07:00:00,73.2,72.3,29.87,NW,310,0.0,0.0,97,0.00,,---,0.55,VWS V14.01,2013-08-28 11:00:00,
2013-08-28 07:05:00,73.0,72.1,29.87,NNW,345,5.4,6.3,97,0.00,,---,0.55,VWS V14.01,2013-08-28 11:05:00,
2013-08-28 07:10:00,73.2,72.3,29.87,NW,314,0.0,4.5,97,0.00,,---,0.55,VWS V14.01,2013-08-28 11:10:00,
2013-08-28 07:15:00,73.2,72.3,29.87,NNW,335,0.0,0.0,97,0.00,,---,0.55,VWS V14.01,2013-08-28 11:15:00,
2013-08-28 07:20:00,73.2,72.3,29.87,NW,326,0.0,0.0,97,0.00,,---,0.55,VWS V14.01,2013-08-28 11:20:00,
2013-08-28 07:25:00,73.2,72.3,29.87,NW,314,7.2,8.1,97,0.00,,---,0.55,VWS V14.01,2013-08-28 11:25:00,
2013-08-28 07:30:00,73.2,72.3,29.87,North,354,5.4,5.4,97,0.00,,---,0.55,VWS V14.01,2013-08-28 11:30:00,
2013-08-28 07:36:00,73.0,72.1,29.87,NW,314,0.0,11.6,97,0.00,,---,0.55,VWS V14.01,2013-08-28 11:36:00,
2013-08-28 07:41:00,73.0,72.4,29.87,NE,36,0.0,7.2,98,0.00,,---,0.55,VWS V14.01,2013-08-28 11:41:00,
2013-08-28 07:46:00,73.0,72.4,29.87,NNW,339,0.0,0.0,98,0.00,,---,0.55,VWS V14.01,2013-08-28 11:46:00,
2013-08-28 07:51:00,73.0,72.4,29.87,NNW,346,0.0,0.0,98,0.00,,---,0.55,VWS V14.01,2013-08-28 11:51:00,
2013-08-28 07:56:00,73.0,72.4,29.87,NNW,333,0.0,0.0,98,0.00,,---,0.55,VWS V14.01,2013-08-28 11:56:00,
2013-08-28 08:01:00,73.0,72.4,29.87,NW,315,5.4,9.8,98,0.00,,---,0.55,VWS V14.01,2013-08-28 12:01:00,
2013-08-28 08:06:00,73.0,72.4,29.87,NNE,14,5.4,5.4,98,0.00,,---,0.55,VWS V14.01,2013-08-28 12:06:00,
2013-08-28 08:11:00,73.0,72.4,29.87,ENE,65,0.0,0.0,98,0.00,,---,0.55,VWS V14.01,2013-08-28 12:11:00,
2013-08-28 08:16:00,73.0,72.4,29.87,WNW,301,5.4,5.4,98,0.00,,---,0.55,VWS V14.01,2013-08-28 12:16:00,
2013-08-28 08:21:00,73.0,72.4,29.87,NNW,348,0.0,4.5,98,0.00,,---,0.55,VWS V14.01,2013-08-28 12:21:00,
2013-08-28 08:26:00,73.0,72.4,29.87,NNW,334,0.0,0.0,98,0.00,,---,0.55,VWS V14.01,2013-08-28 12:26:00,
2013-08-28 08:31:00,73.0,72.4,29.87,NW,308,5.4,5.4,98,0.00,,---,0.55,VWS V14.01,2013-08-28 12:31:00,
2013-08-28 08:36:00,73.0,72.4,29.87,NNW,340,0.0,4.5,98,0.00,,---,0.55,VWS V14.01,2013-08-28 12:36:00,
2013-08-28 08:41:00,73.0,72.4,29.87,NNW,332,5.4,5.4,98,0.00,,---,0.55,VWS V14.01,2013-08-28 12:41:00,
2013-08-28 08:46:00,73.0,72.4,29.87,North,357,0.0,0.0,98,0.00,,---,0.55,VWS V14.01,2013-08-28 12:46:00,
2013-08-28 08:51:00,73.0,72.4,29.87,NNW,338,5.4,8.1,98,0.00,,---,0.55,VWS V14.01,2013-08-28 12:51:00,
2013-08-28 08:56:00,73.0,72.4,29.87,WNW,296,0.0,9.8,98,0.00,,---,0.55,VWS V14.01,2013-08-28 12:56:00,
2013-08-28 09:01:00,73.0,72.4,29.87,NNE,18,0.0,0.0,98,0.00,,---,0.55,VWS V14.01,2013-08-28 13:01:00,
2013-08-28 09:06:00,73.0,72.4,29.87,NE,52,0.0,0.0,98,0.00,,---,0.55,VWS V14.01,2013-08-28 13:06:00,
2013-08-28 09:11:00,73.0,72.4,29.87,NW,326,4.5,4.5,98,0.00,,---,0.55,VWS V14.01,2013-08-28 13:11:00,
2013-08-28 09:17:00,73.0,72.4,29.90,WNW,302,7.2,8.1,98,0.00,,---,0.55,VWS V14.01,2013-08-28 13:17:00,
2013-08-28 09:22:00,73.0,72.4,29.90,NNW,328,14.3,14.3,98,0.00,,---,0.55,VWS V14.01,2013-08-28 13:22:00,
2013-08-28 09:27:00,73.2,72.6,29.90,NW,309,0.0,0.0,98,0.00,,---,0.55,VWS V14.01,2013-08-28 13:27:00,
2013-08-28 09:32:00,73.2,72.6,29.90,WNW,287,5.4,5.4,98,0.00,,---,0.55,VWS V14.01,2013-08-28 13:32:00,
2013-08-28 09:37:00,73.2,72.6,29.90,NW,306,0.0,0.0,98,0.00,,---,0.55,VWS V14.01,2013-08-28 13:37:00,
2013-08-28 09:42:00,73.2,72.6,29.90,NNW,339,0.0,8.1,98,0.00,,---,0.55,VWS V14.01,2013-08-28 13:42:00,
2013-08-28 09:47:00,73.2,72.6,29.90,North,4,0.0,0.0,98,0.00,,---,0.55,VWS V14.01,2013-08-28 13:47:00,
2013-08-28 09:52:00,73.2,72.6,29.90,North,355,8.1,8.1,98,0.00,,---,0.55,VWS V14.01,2013-08-28 13:52:00,
2013-08-28 09:57:00,73.2,72.6,29.90,NNW,339,8.1,8.1,98,0.00,,---,0.55,VWS V14.01,2013-08-28 13:57:00,
2013-08-28 10:02:00,73.4,72.5,29.90,North,4,0.0,5.4,97,0.00,,---,0.55,VWS V14.01,2013-08-28 14:02:00,
2013-08-28 10:07:00,73.6,73.0,29.90,North,6,6.3,6.3,98,0.00,,---,0.55,VWS V14.01,2013-08-28 14:07:00,
2013-08-28 10:12:00,73.8,73.2,29.90,NNW,348,0.0,0.0,98,0.00,,---,0.55,VWS V14.01,2013-08-28 14:12:00,
2013-08-28 10:17:00,73.9,73.3,29.90,North,7,6.3,9.8,98,0.00,,---,0.55,VWS V14.01,2013-08-28 14:17:00,
2013-08-28 10:22:00,74.1,73.5,29.90,North,358,0.0,8.1,98,0.00,,---,0.55,VWS V14.01,2013-08-28 14:22:00,
2013-08-28 10:27:00,73.9,73.3,29.90,ENE,59,0.0,6.3,98,0.00,,---,0.55,VWS V14.01,2013-08-28 14:27:00,
2013-08-28 10:32:00,73.9,73.0,29.90,North,9,0.0,4.5,97,0.00,,---,0.55,VWS V14.01,2013-08-28 14:32:00,
2013-08-28 10:37:00,73.9,73.0,29.90,NNE,28,4.5,7.2,97,0.00,,---,0.55,VWS V14.01,2013-08-28 14:37:00,
2013-08-28 10:42:00,74.1,73.5,29.90,North,352,0.0,10.7,98,0.00,,---,0.55,VWS V14.01,2013-08-28 14:42:00,
2013-08-28 10:48:00,74.1,73.5,29.90,North,5,0.0,0.0,98,0.00,,---,0.55,VWS V14.01,2013-08-28 14:48:00,
2013-08-28 10:53:00,74.1,73.2,29.90,NE,44,0.0,0.0,97,0.00,,---,0.55,VWS V14.01,2013-08-28 14:53:00,
2013-08-28 10:58:00,74.1,73.2,29.90,NNE,18,0.0,0.0,97,0.00,,---,0.55,VWS V14.01,2013-08-28 14:58:00,
2013-08-28 11:03:00,74.1,73.2,29.90,NNW,329,6.3,6.3,97,0.00,,---,0.55,VWS V14.01,2013-08-28 15:03:00,
2013-08-28 11:08:00,74.3,73.4,29.90,NE,51,5.4,8.1,97,0.00,,---,0.55,VWS V14.01,2013-08-28 15:08:00,
2013-08-28 11:13:00,74.1,73.2,29.90,NNW,342,0.0,5.4,97,0.00,,---,0.55,VWS V14.01,2013-08-28 15:13:00,
2013-08-28 11:18:00,74.1,73.2,29.90,North,356,0.0,5.4,97,0.00,,---,0.55,VWS V14.01,2013-08-28 15:18:00,
2013-08-28 11:23:00,74.1,73.2,29.90,North,351,0.0,0.0,97,0.00,,---,0.55,VWS V14.01,2013-08-28 15:23:00,
2013-08-28 11:28:00,74.3,73.4,29.90,NNE,29,0.0,7.2,97,0.00,,---,0.55,VWS V14.01,2013-08-28 15:28:00,
2013-08-28 11:33:00,74.7,73.8,29.93,NNE,24,5.4,5.4,97,0.00,,---,0.55,VWS V14.01,2013-08-28 15:33:00,
2013-08-28 11:38:00,74.8,73.9,29.93,NNE,22,5.4,7.2,97,0.00,,---,0.55,VWS V14.01,2013-08-28 15:38:00,
2013-08-28 11:43:00,75.2,74.3,29.93,NNW,329,0.0,8.1,97,0.00,,---,0.55,VWS V14.01,2013-08-28 15:43:00,
2013-08-28 11:48:00,75.6,74.7,29.93,North,351,0.0,0.0,97,0.00,,---,0.55,VWS V14.01,2013-08-28 15:48:00,
2013-08-28 11:53:00,75.9,75.0,29.93,NNW,341,6.3,6.3,97,0.00,,---,0.55,VWS V14.01,2013-08-28 15:53:00,
2013-08-28 11:58:00,76.1,75.2,29.93,East,85,5.4,8.1,97,0.00,,---,0.55,VWS V14.01,2013-08-28 15:58:00,
2013-08-28 12:03:00,76.3,75.4,29.93,North,10,15.2,15.2,97,0.00,,---,0.55,VWS V14.01,2013-08-28 16:03:00,
2013-08-28 12:08:00,76.5,75.6,29.93,ESE,112,6.3,12.5,97,0.00,,---,0.55,VWS V14.01,2013-08-28 16:08:00,
2013-08-28 12:13:00,76.6,75.7,29.93,NW,309,10.7,12.5,97,0.00,,---,0.55,VWS V14.01,2013-08-28 16:13:00,
2013-08-28 12:18:00,77.2,76.0,29.93,North,350,0.0,6.3,96,0.00,,---,0.55,VWS V14.01,2013-08-28 16:18:00,
2013-08-28 12:24:00,77.5,76.3,29.93,NE,38,8.1,12.5,96,0.00,,---,0.55,VWS V14.01,2013-08-28 16:24:00,
2013-08-28 12:29:00,77.7,76.5,29.93,NNW,332,6.3,6.3,96,0.00,,---,0.55,VWS V14.01,2013-08-28 16:29:00,
2013-08-28 12:34:00,77.7,76.2,29.93,NE,42,6.3,7.2,95,0.00,,---,0.55,VWS V14.01,2013-08-28 16:34:00,
2013-08-28 12:39:00,77.7,76.2,29.93,NNE,18,7.2,11.6,95,0.00,,---,0.55,VWS V14.01,2013-08-28 16:39:00,
2013-08-28 12:44:00,78.1,76.5,29.93,WNW,302,0.0,0.0,95,0.00,,---,0.55,VWS V14.01,2013-08-28 16:44:00,
2013-08-28 12:49:00,78.4,76.6,29.93,NW,309,6.3,7.2,94,0.00,,---,0.55,VWS V14.01,2013-08-28 16:49:00,
2013-08-28 12:54:00,78.3,76.1,29.93,NW,319,10.7,11.6,93,0.00,,---,0.55,VWS V14.01,2013-08-28 16:54:00,
2013-08-28 12:59:00,78.3,76.1,29.93,NNE,14,0.0,0.0,93,0.00,,---,0.55,VWS V14.01,2013-08-28 16:59:00,
2013-08-28 13:04:00,78.3,76.1,29.93,WSW,255,4.5,9.8,93,0.00,,---,0.55,VWS V14.01,2013-08-28 17:04:00,
2013-08-28 13:09:00,78.3,75.8,29.93,North,360,7.2,12.5,92,0.00,,---,0.55,VWS V14.01,2013-08-28 17:09:00,
2013-08-28 13:14:00,78.4,75.9,29.93,NE,55,0.0,7.2,92,0.00,,---,0.55,VWS V14.01,2013-08-28 17:14:00,
2013-08-28 13:19:00,78.4,75.6,29.93,NW,324,5.4,11.6,91,0.00,,---,0.55,VWS V14.01,2013-08-28 17:19:00,
2013-08-28 13:24:00,78.6,75.8,29.93,NNE,26,0.0,11.6,91,0.00,,---,0.55,VWS V14.01,2013-08-28 17:24:00,
2013-08-28 13:29:00,78.6,75.8,29.93,NNW,340,12.5,12.5,91,0.00,,---,0.55,VWS V14.01,2013-08-28 17:29:00,
2013-08-28 13:34:00,78.6,75.4,29.93,NNE,18,8.1,11.6,90,0.00,,---,0.55,VWS V14.01,2013-08-28 17:34:00,
2013-08-28 13:39:00,78.4,74.9,29.93,NW,323,7.2,8.1,89,0.00,,---,0.55,VWS V14.01,2013-08-28 17:39:00,
2013-08-28 13:44:00,78.3,74.4,29.93,WNW,299,0.0,15.2,88,0.00,,---,0.55,VWS V14.01,2013-08-28 17:44:00,
2013-08-28 13:49:00,78.4,74.6,29.93,NNE,33,5.4,7.2,88,0.00,,---,0.55,VWS V14.01,2013-08-28 17:49:00,
2013-08-28 13:54:00,78.4,74.2,29.93,ENE,57,5.4,9.8,87,0.00,,---,0.55,VWS V14.01,2013-08-28 17:54:00,
2013-08-28 13:59:00,78.6,74.4,29.93,NW,316,5.4,5.4,87,0.00,,---,0.55,VWS V14.01,2013-08-28 17:59:00,
2013-08-28 14:04:00,78.3,73.7,29.93,North,1,0.0,8.1,86,0.00,,---,0.55,VWS V14.01,2013-08-28 18:04:00,
2013-08-28 14:09:00,78.1,73.2,29.93,North,354,8.1,11.6,85,0.00,,---,0.55,VWS V14.01,2013-08-28 18:09:00,
2013-08-28 14:15:00,77.9,73.0,29.93,NNW,338,7.2,7.2,85,0.00,,---,0.55,VWS V14.01,2013-08-28 18:15:00,
2013-08-28 14:20:00,77.9,73.0,29.93,NW,310,10.7,10.7,85,0.00,,---,0.55,VWS V14.01,2013-08-28 18:20:00,
2013-08-28 14:25:00,78.1,72.9,29.93,North,1,10.7,10.7,84,0.00,,---,0.55,VWS V14.01,2013-08-28 18:25:00,
2013-08-28 14:30:00,78.3,73.0,29.96,NNW,347,7.2,7.2,84,0.00,,---,0.55,VWS V14.01,2013-08-28 18:30:00,
2013-08-28 14:35:00,78.4,73.2,29.96,NW,305,5.4,7.2,84,0.00,,---,0.55,VWS V14.01,2013-08-28 18:35:00,
2013-08-28 14:40:00,78.8,73.6,29.96,NW,314,0.0,0.0,84,0.00,,---,0.55,VWS V14.01,2013-08-28 18:40:00,
2013-08-28 14:45:00,79.2,73.9,29.96,NNW,328,7.2,7.2,84,0.00,,---,0.55,VWS V14.01,2013-08-28 18:45:00,
2013-08-28 14:50:00,79.5,73.9,29.96,NW,306,10.7,16.6,83,0.00,,---,0.55,VWS V14.01,2013-08-28 18:50:00,
2013-08-28 14:55:00,79.7,73.7,29.96,ENE,62,7.2,7.2,82,0.00,,---,0.55,VWS V14.01,2013-08-28 18:55:00,
2013-08-28 15:00:00,79.7,73.0,29.96,NNW,342,0.0,8.1,80,0.00,,---,0.55,VWS V14.01,2013-08-28 19:00:00,
2013-08-28 15:05:00,79.7,72.6,29.96,North,349,8.1,12.5,79,0.00,,---,0.55,VWS V14.01,2013-08-28 19:05:00,
2013-08-28 15:10:00,79.9,72.8,29.96,North,356,11.6,12.5,79,0.00,,---,0.55,VWS V14.01,2013-08-28 19:10:00,
2013-08-28 15:15:00,80.1,72.6,29.96,NW,315,5.4,5.4,78,0.00,,---,0.55,VWS V14.01,2013-08-28 19:15:00,
2013-08-28 15:20:00,80.1,72.2,29.96,NNW,340,9.8,12.5,77,0.00,,---,0.55,VWS V14.01,2013-08-28 19:20:00,
2013-08-28 15:25:00,80.1,72.2,29.96,NNW,343,10.7,11.6,77,0.00,,---,0.55,VWS V14.01,2013-08-28 19:25:00,
2013-08-28 15:30:00,80.2,72.0,29.96,NNE,14,7.2,16.6,76,0.00,,---,0.55,VWS V14.01,2013-08-28 19:30:00,
2013-08-28 15:35:00,80.2,72.0,29.96,NNE,18,8.1,8.1,76,0.00,,---,0.55,VWS V14.01,2013-08-28 19:35:00,
2013-08-28 15:40:00,80.1,71.8,29.96,NE,38,0.0,0.0,76,0.00,,---,0.55,VWS V14.01,2013-08-28 19:40:00,
2013-08-28 15:45:00,79.7,71.1,29.96,NNW,328,19.2,19.2,75,0.00,,---,0.55,VWS V14.01,2013-08-28 19:45:00,
2013-08-28 15:50:00,79.5,70.5,29.96,East,83,0.0,11.6,74,0.00,,---,0.55,VWS V14.01,2013-08-28 19:50:00,
2013-08-28 15:56:00,79.2,70.2,29.96,North,360,0.0,0.0,74,0.00,,---,0.55,VWS V14.01,2013-08-28 19:56:00,
2013-08-28 16:01:00,79.0,70.4,29.96,North,7,7.2,7.2,75,0.00,,---,0.55,VWS V14.01,2013-08-28 20:01:00,
2013-08-28 16:06:00,79.0,70.4,29.96,NNE,14,0.0,5.4,75,0.00,,---,0.55,VWS V14.01,2013-08-28 20:06:00,
2013-08-28 16:11:00,79.0,70.8,29.96,NE,37,0.0,5.4,76,0.00,,---,0.55,VWS V14.01,2013-08-28 20:11:00,
2013-08-28 16:16:00,79.2,70.9,29.96,NW,324,10.7,10.7,76,0.00,,---,0.55,VWS V14.01,2013-08-28 20:16:00,
2013-08-28 16:21:00,79.2,70.9,29.96,North,1,11.6,16.6,76,0.00,,---,0.55,VWS V14.01,2013-08-28 20:21:00,
2013-08-28 16:26:00,79.2,70.6,29.96,NE,45,7.2,7.2,75,0.00,,---,0.55,VWS V14.01,2013-08-28 20:26:00,
2013-08-28 16:31:00,79.2,70.6,29.96,WNW,296,8.1,8.1,75,0.00,,---,0.55,VWS V14.01,2013-08-28 20:31:00,
2013-08-28 16:36:00,79.7,71.1,29.96,NNW,329,6.3,11.6,75,0.00,,---,0.55,VWS V14.01,2013-08-28 20:36:00,
2013-08-28 16:41:00,80.1,71.0,29.96,NW,315,11.6,21.0,74,0.00,,---,0.55,VWS V14.01,2013-08-28 20:41:00,
2013-08-28 16:46:00,80.1,70.6,29.96,North,3,5.4,7.2,73,0.00,,---,0.55,VWS V14.01,2013-08-28 20:46:00,
2013-08-28 16:51:00,79.9,69.6,29.96,NNE,28,0.0,6.3,71,0.00,,---,0.55,VWS V14.01,2013-08-28 20:51:00,
2013-08-28 16:56:00,79.7,69.5,29.96,NNE,18,8.1,8.1,71,0.00,,---,0.55,VWS V14.01,2013-08-28 20:56:00,
2013-08-28 17:01:00,79.5,69.3,29.96,NNE,14,5.4,11.6,71,0.00,,---,0.55,VWS V14.01,2013-08-28 21:01:00,
2013-08-28 17:06:00,79.5,69.3,29.96,NNE,14,6.3,6.3,71,0.00,,---,0.55,VWS V14.01,2013-08-28 21:06:00,
2013-08-28 17:11:00,79.3,69.1,29.96,NNW,347,8.1,9.8,71,0.00,,---,0.55,VWS V14.01,2013-08-28 21:11:00,
2013-08-28 17:16:00,79.3,69.5,29.96,WNW,293,7.2,7.2,72,0.00,,---,0.55,VWS V14.01,2013-08-28 21:16:00,
2013-08-28 17:21:00,79.3,69.1,29.96,North,6,0.0,7.2,71,0.00,,---,0.55,VWS V14.01,2013-08-28 21:21:00,
2013-08-28 17:27:00,79.3,69.5,29.96,North,5,8.1,8.1,72,0.00,,---,0.55,VWS V14.01,2013-08-28 21:27:00,
2013-08-28 17:32:00,79.2,69.4,29.96,North,3,5.4,5.4,72,0.00,,---,0.55,VWS V14.01,2013-08-28 21:32:00,
2013-08-28 17:37:00,79.3,69.5,29.96,NNW,335,0.0,0.0,72,0.00,,---,0.55,VWS V14.01,2013-08-28 21:37:00,
2013-08-28 17:42:00,79.7,69.9,29.96,NW,325,10.7,10.7,72,0.00,,---,0.55,VWS V14.01,2013-08-28 21:42:00,
2013-08-28 17:47:00,80.1,70.2,29.96,NNW,328,6.3,6.3,72,0.00,,---,0.55,VWS V14.01,2013-08-28 21:47:00,
2013-08-28 17:52:00,80.2,70.0,29.96,NNW,327,8.1,8.1,71,0.00,,---,0.55,VWS V14.01,2013-08-28 21:52:00,
2013-08-28 17:57:00,80.2,70.0,29.96,ESE,119,6.3,6.3,71,0.00,,---,0.55,VWS V14.01,2013-08-28 21:57:00,
2013-08-28 18:02:00,80.2,69.6,29.96,NNE,21,9.8,9.8,70,0.00,,---,0.55,VWS V14.01,2013-08-28 22:02:00,
2013-08-28 18:07:00,80.1,69.0,29.96,NNW,348,9.8,9.8,69,0.00,,---,0.55,VWS V14.01,2013-08-28 22:07:00,
2013-08-28 18:12:00,79.9,68.8,29.96,NNE,18,4.5,7.2,69,0.00,,---,0.55,VWS V14.01,2013-08-28 22:12:00,
2013-08-28 18:17:00,79.5,68.0,29.96,North,352,4.5,4.5,68,0.00,,---,0.55,VWS V14.01,2013-08-28 22:17:00,
2013-08-28 18:22:00,79.3,67.9,29.96,NNW,335,0.0,0.0,68,0.00,,---,0.55,VWS V14.01,2013-08-28 22:22:00,
2013-08-28 18:27:00,79.2,68.1,29.96,North,2,4.5,8.9,69,0.00,,---,0.55,VWS V14.01,2013-08-28 22:27:00,
2013-08-28 18:32:00,79.2,68.1,29.96,NNE,14,8.9,8.9,69,0.00,,---,0.55,VWS V14.01,2013-08-28 22:32:00,
2013-08-28 18:37:00,79.2,67.7,29.96,NNW,341,7.2,8.1,68,0.00,,---,0.55,VWS V14.01,2013-08-28 22:37:00,
2013-08-28 18:42:00,79.2,67.7,29.96,North,359,5.4,6.3,68,0.00,,---,0.55,VWS V14.01,2013-08-28 22:42:00,
2013-08-28 18:47:00,79.3,67.9,29.96,NNE,21,0.0,4.5,68,0.00,,---,0.55,VWS V14.01,2013-08-28 22:47:00,
2013-08-28 18:52:00,79.3,67.9,29.96,North,358,4.5,7.2,68,0.00,,---,0.55,VWS V14.01,2013-08-28 22:52:00,
2013-08-28 18:58:00,79.3,67.9,29.96,North,356,14.3,14.3,68,0.00,,---,0.55,VWS V14.01,2013-08-28 22:58:00,
2013-08-28 19:03:00,79.3,67.9,29.96,NNW,344,7.2,7.2,68,0.00,,---,0.55,VWS V14.01,2013-08-28 23:03:00,
2013-08-28 19:08:00,79.2,67.3,29.96,WNW,303,0.0,5.4,67,0.00,,---,0.55,VWS V14.01,2013-08-28 23:08:00,
2013-08-28 19:13:00,79.0,67.1,29.96,NNW,345,0.0,0.0,67,0.00,,---,0.55,VWS V14.01,2013-08-28 23:13:00,
2013-08-28 19:18:00,78.6,67.2,29.99,NNE,21,0.0,0.0,68,0.00,,---,0.55,VWS V14.01,2013-08-28 23:18:00,
2013-08-28 19:23:00,78.4,66.6,29.99,NNW,327,0.0,0.0,67,0.00,,---,0.55,VWS V14.01,2013-08-28 23:23:00,
2013-08-28 19:28:00,78.1,66.7,29.99,NNW,336,0.0,0.0,68,0.00,,---,0.55,VWS V14.01,2013-08-28 23:28:00,
2013-08-28 19:33:00,77.9,66.5,29.99,NNW,336,0.0,0.0,68,0.00,,---,0.55,VWS V14.01,2013-08-28 23:33:00,
2013-08-28 19:38:00,77.7,66.3,29.99,NW,312,0.0,0.0,68,0.00,,---,0.55,VWS V14.01,2013-08-28 23:38:00,
2013-08-28 19:43:00,77.4,66.0,29.99,NNW,347,0.0,5.4,68,0.00,,---,0.55,VWS V14.01,2013-08-28 23:43:00,
2013-08-28 19:48:00,77.2,66.2,29.99,NNE,14,0.0,6.3,69,0.00,,---,0.55,VWS V14.01,2013-08-28 23:48:00,
2013-08-28 19:53:00,76.8,65.9,29.99,North,351,0.0,5.4,69,0.00,,---,0.55,VWS V14.01,2013-08-28 23:53:00,
2013-08-28 19:58:00,76.6,65.7,29.99,NNE,30,0.0,0.0,69,0.00,,---,0.55,VWS V14.01,2013-08-28 23:58:00,
2013-08-28 20:03:00,76.5,66.0,29.99,NNE,14,0.0,0.0,70,0.00,,---,0.55,VWS V14.01,2013-08-29 00:03:00,
2013-08-28 20:08:00,76.3,65.8,29.99,NNE,14,0.0,0.0,70,0.00,,---,0.55,VWS V14.01,2013-08-29 00:08:00,
2013-08-28 20:13:00,76.1,65.6,29.99,North,358,0.0,6.3,70,0.00,,---,0.55,VWS V14.01,2013-08-29 00:13:00,
2013-08-28 20:18:00,75.9,65.4,29.99,NNE,18,4.5,4.5,70,0.00,,---,0.55,VWS V14.01,2013-08-29 00:18:00,
2013-08-28 20:23:00,75.7,65.7,29.99,NNE,18,0.0,0.0,71,0.00,,---,0.55,VWS V14.01,2013-08-29 00:23:00,
2013-08-28 20:29:00,75.6,65.5,29.99,NNE,18,0.0,0.0,71,0.00,,---,0.55,VWS V14.01,2013-08-29 00:29:00,
2013-08-28 20:34:00,75.4,65.3,29.99,NNE,18,0.0,0.0,71,0.00,,---,0.55,VWS V14.01,2013-08-29 00:34:00,
2013-08-28 20:39:00,75.2,65.6,29.99,NNE,18,0.0,0.0,72,0.00,,---,0.55,VWS V14.01,2013-08-29 00:39:00,
2013-08-28 20:44:00,75.0,65.8,29.99,NNE,18,0.0,0.0,73,0.00,,---,0.55,VWS V14.01,2013-08-29 00:44:00,
2013-08-28 20:49:00,74.7,65.4,29.99,NNE,18,0.0,0.0,73,0.00,,---,0.55,VWS V14.01,2013-08-29 00:49:00,
2013-08-28 20:54:00,74.5,65.3,29.99,NNE,18,0.0,0.0,73,0.00,,---,0.55,VWS V14.01,2013-08-29 00:54:00,
2013-08-28 20:59:00,74.3,65.5,29.99,NNE,18,0.0,0.0,74,0.00,,---,0.55,VWS V14.01,2013-08-29 00:59:00,
2013-08-28 21:04:00,74.1,65.3,29.99,NNE,18,0.0,0.0,74,0.00,,---,0.55,VWS V14.01,2013-08-29 01:04:00,
2013-08-28 21:09:00,73.8,65.3,29.99,NNE,18,0.0,0.0,75,0.00,,---,0.55,VWS V14.01,2013-08-29 01:09:00,
2013-08-28 21:14:00,73.6,65.2,29.99,North,354,0.0,6.3,75,0.00,,---,0.55,VWS V14.01,2013-08-29 01:14:00,
2013-08-28 21:19:00,73.6,65.6,30.02,NNW,341,0.0,0.0,76,0.00,,---,0.55,VWS V14.01,2013-08-29 01:19:00,
2013-08-28 21:24:00,73.4,65.4,30.02,ENE,60,0.0,0.0,76,0.00,,---,0.55,VWS V14.01,2013-08-29 01:24:00,
2013-08-28 21:29:00,73.2,65.6,30.02,NNE,28,5.4,5.4,77,0.00,,---,0.55,VWS V14.01,2013-08-29 01:29:00,
2013-08-28 21:34:00,73.0,65.8,30.02,NNE,28,0.0,0.0,78,0.00,,---,0.55,VWS V14.01,2013-08-29 01:34:00,
2013-08-28 21:40:00,73.0,65.8,30.02,NNE,14,0.0,0.0,78,0.00,,---,0.55,VWS V14.01,2013-08-29 01:40:00,
2013-08-28 21:45:00,73.0,65.8,30.02,North,3,0.0,0.0,78,0.00,,---,0.55,VWS V14.01,2013-08-29 01:45:00,
2013-08-28 21:50:00,72.9,65.6,30.02,North,6,0.0,0.0,78,0.00,,---,0.55,VWS V14.01,2013-08-29 01:50:00,
2013-08-28 21:55:00,72.9,66.0,30.02,NNE,18,0.0,0.0,79,0.00,,---,0.55,VWS V14.01,2013-08-29 01:55:00,
2013-08-28 22:00:00,72.7,65.8,30.02,NNE,18,0.0,0.0,79,0.00,,---,0.55,VWS V14.01,2013-08-29 02:00:00,
2013-08-28 22:05:00,72.7,65.8,30.02,NNE,18,0.0,0.0,79,0.00,,---,0.55,VWS V14.01,2013-08-29 02:05:00,
2013-08-28 22:10:00,72.5,65.6,30.02,NNE,18,0.0,0.0,79,0.00,,---,0.55,VWS V14.01,2013-08-29 02:10:00,
2013-08-28 22:15:00,72.3,65.4,30.02,NNE,18,0.0,0.0,79,0.00,,---,0.55,VWS V14.01,2013-08-29 02:15:00,
2013-08-28 22:20:00,72.1,65.6,30.02,NNE,18,0.0,0.0,80,0.00,,---,0.55,VWS V14.01,2013-08-29 02:20:00,
2013-08-28 22:25:00,72.1,65.6,30.02,NNE,18,0.0,0.0,80,0.00,,---,0.55,VWS V14.01,2013-08-29 02:25:00,
2013-08-28 22:30:00,72.0,65.5,30.02,NNE,18,0.0,0.0,80,0.00,,---,0.55,VWS V14.01,2013-08-29 02:30:00,
2013-08-28 22:35:00,71.8,65.3,30.02,NNE,18,0.0,0.0,80,0.00,,---,0.55,VWS V14.01,2013-08-29 02:35:00,
2013-08-28 22:40:00,71.6,65.1,30.02,NNE,18,0.0,0.0,80,0.00,,---,0.55,VWS V14.01,2013-08-29 02:40:00,
2013-08-28 22:45:00,71.4,65.3,30.02,NNE,18,0.0,0.0,81,0.00,,---,0.55,VWS V14.01,2013-08-29 02:45:00,
2013-08-28 22:50:00,71.2,65.1,30.02,NNE,18,0.0,0.0,81,0.00,,---,0.55,VWS V14.01,2013-08-29 02:50:00,
2013-08-28 22:55:00,71.1,64.9,30.02,NNE,18,0.0,0.0,81,0.00,,---,0.55,VWS V14.01,2013-08-29 02:55:00,
2013-08-28 23:01:00,70.9,64.8,30.02,NNE,18,0.0,0.0,81,0.00,,---,0.55,VWS V14.01,2013-08-29 03:01:00,
2013-08-28 23:06:00,70.7,64.6,30.02,NNE,18,0.0,0.0,81,0.00,,---,0.55,VWS V14.01,2013-08-29 03:06:00,
2013-08-28 23:11:00,70.5,64.8,30.02,NNE,18,0.0,0.0,82,0.00,,---,0.55,VWS V14.01,2013-08-29 03:11:00,
2013-08-28 23:16:00,70.3,64.6,30.05,NNE,18,0.0,0.0,82,0.00,,---,0.55,VWS V14.01,2013-08-29 03:16:00,
2013-08-28 23:21:00,70.3,64.6,30.05,NNE,18,0.0,0.0,82,0.00,,---,0.55,VWS V14.01,2013-08-29 03:21:00,
2013-08-28 23:26:00,70.2,64.8,30.05,NNE,18,0.0,0.0,83,0.00,,---,0.55,VWS V14.01,2013-08-29 03:26:00,
2013-08-28 23:31:00,70.0,64.6,30.05,NNE,18,0.0,0.0,83,0.00,,---,0.55,VWS V14.01,2013-08-29 03:31:00,
2013-08-28 23:36:00,70.0,64.6,30.05,NNE,18,0.0,0.0,83,0.00,,---,0.55,VWS V14.01,2013-08-29 03:36:00,
2013-08-28 23:41:00,69.8,64.4,30.05,NNE,18,0.0,0.0,83,0.00,,---,0.55,VWS V14.01,2013-08-29 03:41:00,
2013-08-28 23:46:00,69.8,64.8,30.02,NNE,18,0.0,0.0,84,0.00,,---,0.55,VWS V14.01,2013-08-29 03:46:00,
2013-08-28 23:51:00,69.6,64.6,30.02,NNE,18,0.0,0.0,84,0.00,,---,0.55,VWS V14.01,2013-08-29 03:51:00,
2013-08-28 23:56:00,69.4,64.7,30.02,North,352,0.0,0.0,85,0.00,,---,0.55,VWS V14.01,2013-08-29 03:56:00,